GW0409 Weather Reports


Display with metric or nautical units.
time (UTC)temp
F
wind
direction
speed
MPH
gust
MPH
rain 1hr
in
rain 24hr
in
rain mn
in
humidity
%
barometer
mb
20260906223518 70 176 1.0 4.0 0.00 0.00 0.00 53 1012.9
20260906222520 71 111 2.0 5.0 0.00 0.00 0.00 52 1013.1
20260906221519 70 169 1.0 3.0 0.00 0.00 0.00 55 1013.1
20260906220521 70 168 2.0 5.0 0.00 0.00 0.00 54 1013.2
20260906215518 70 154 1.0 3.0 0.00 0.00 0.00 52 1013.3
20260906214519 69 206 1.0 3.0 0.00 0.00 0.00 56 1013.4
20260906213520 69 178 2.0 5.0 0.00 0.00 0.00 55 1013.6
20260906212522 69 152 2.0 6.0 0.00 0.00 0.00 56 1013.7
20260906211517 68 179 2.0 4.0 0.00 0.00 0.00 58 1013.9
20260906210538 67 228 0.0 2.0 0.00 0.00 0.00 59 1014.2
20260906205518 68 229 2.0 4.0 0.00 0.00 0.00 56 1014.2
20260906204520 68 221 2.0 6.0 0.00 0.00 0.00 57 1014.3
20260906203517 67 237 1.0 3.0 0.00 0.00 0.00 57 1014.5
20260906202517 66 227 2.0 5.0 0.00 0.00 0.00 61 1014.7
20260906201519 65 211 1.0 2.0 0.00 0.00 0.00 62 1014.9
20260906200519 64 198 0.0 3.0 0.00 0.00 0.00 64 1015.1
20260906195518 64 183 1.0 3.0 0.00 0.00 0.00 65 1015.3
20260906194518 63 161 0.0 2.0 0.00 0.00 0.00 66 1015.5
20260906193520 62 154 1.0 2.0 0.00 0.00 0.00 69 1015.6
20260906192601 62 185 1.0 3.0 0.00 0.00 0.00 72 1015.7
20260906191519 62 236 1.0 5.0 0.00 0.00 0.00 71 1015.8
20260906190520 61 214 1.0 3.0 0.00 0.00 0.00 72 1016.0
20260906185521 60 189 1.0 3.0 0.00 0.00 0.00 74 1016.1
20260906184520 60 212 2.0 3.0 0.00 0.00 0.00 74 1016.3
20260906183519 59 189 0.0 3.0 0.00 0.00 0.00 76 1016.4
20260906182519 57 228 0.0 2.0 0.00 0.00 0.00 78 1016.4
20260906181601 57 249 1.0 3.0 0.00 0.00 0.00 80 1016.5
20260906180518 56 306 1.0 2.0 0.00 0.00 0.00 82 1016.6
20260906175517 55 291 1.0 3.0 0.00 0.00 0.00 82 1016.7
20260906174624 54 268 1.0 3.0 0.00 0.00 0.00 83 1016.8
20260906173518 53 324 1.0 3.0 0.00 0.00 0.00 87 1016.9
20260906172524 52 312 0.0 2.0 0.00 0.00 0.00 90 1017.0
20260906171524 51 337 1.0 3.0 0.00 0.00 0.00 90 1017.1
20260906170547 49 322 2.0 4.0 0.00 0.00 0.00 94 1017.1
20260906165526 49 323 0.0 2.0 0.00 0.00 0.00 95 1017.2
20260906164524 48 14 2.0 5.0 0.00 0.00 0.00 95 1017.2
20260906163526 48 34 1.0 4.0 0.00 0.00 0.00 96 1017.3
20260906162524 47 0.0 0.0 0.00 0.00 0.00 96 1017.4
20260906161527 46 9 1.0 3.0 0.00 0.00 0.00 96 1017.4
20260906160525 45 326 1.0 2.0 0.00 0.00 0.00 96 1017.6
20260906155546 45 352 0.0 3.0 0.00 0.00 0.00 96 1017.6
20260906154545 45 11 2.0 4.0 0.00 0.00 0.00 96 1017.6
20260906153527 45 359 0.0 3.0 0.00 0.00 0.00 95 1017.7
20260906152547 44 222 0.0 1.0 0.00 0.00 0.00 95 1017.8
20260906151526 44 253 0.0 2.0 0.00 0.00 0.00 95 1017.7
20260906150526 44 320 1.0 1.0 0.00 0.00 0.00 95 1017.7
20260906145526 44 293 0.0 1.0 0.00 0.00 0.00 95 1017.7
20260906144528 43 345 0.0 2.0 0.00 0.00 0.00 95 1017.6
20260906143526 43 337 1.0 2.0 0.00 0.00 0.00 95 1017.7
20260906142527 43 309 1.0 2.0 0.00 0.00 0.00 95 1017.6
20260906141527 43 341 0.0 2.0 0.00 0.00 0.00 95 1017.6
20260906140549 43 339 1.0 2.0 0.00 0.00 0.00 95 1017.5
20260906135527 43 0.0 0.0 0.00 0.00 0.00 95 1017.4
20260906134527 42 352 0.0 0.0 0.00 0.00 0.00 95 1017.4
20260906133549 42 350 1.0 2.0 0.00 0.00 0.00 95 1017.4
20260906132528 42 0.0 0.0 0.00 0.00 0.00 95 1017.4
20260906131541 43 354 0.0 2.0 0.00 0.00 0.00 95 1017.4
20260906130519 43 355 1.0 3.0 0.00 0.00 0.00 95 1017.4
20260906125537 43 352 0.0 2.0 0.00 0.00 0.00 95 1017.4
20260906124517 44 352 2.0 3.0 0.00 0.00 0.00 95 1017.5
20260906123601 44 3 2.0 3.0 0.00 0.00 0.00 95 1017.4
20260906122522 44 0.0 0.0 0.00 0.00 0.00 95 1017.4
20260906121518 44 10 3.0 4.0 0.00 0.00 0.00 95 1017.4
20260906120521 45 5 2.0 3.0 0.00 0.00 0.00 95 1017.4
20260906115518 45 2 2.0 4.0 0.00 0.00 0.00 95 1017.4
20260906114518 45 358 1.0 3.0 0.00 0.00 0.00 95 1017.4
20260906113540 45 330 2.0 2.0 0.00 0.00 0.00 95 1017.4
20260906112518 45 351 2.0 2.0 0.00 0.00 0.00 95 1017.4
20260906111519 45 358 0.0 2.0 0.00 0.00 0.00 95 1017.4
20260906110519 45 298 1.0 2.0 0.00 0.00 0.00 95 1017.4
20260906105519 45 332 0.0 1.0 0.00 0.00 0.00 95 1017.5
20260906104519 45 343 1.0 2.0 0.00 0.00 0.00 95 1017.6
20260906103517 46 354 0.0 2.0 0.00 0.00 0.00 95 1017.6
20260906102541 45 349 1.0 2.0 0.00 0.00 0.00 95 1017.7
20260906101520 45 331 2.0 2.0 0.00 0.00 0.00 95 1017.6
20260906100521 46 332 1.0 2.0 0.00 0.00 0.00 95 1017.6
20260906095519 46 0.0 0.0 0.00 0.00 0.00 95 1017.5
20260906094517 46 271 0.0 1.0 0.00 0.00 0.00 95 1017.5
20260906093518 46 343 1.0 2.0 0.00 0.00 0.00 95 1017.6
20260906092520 47 287 0.0 0.0 0.00 0.00 0.00 95 1017.6
20260906091520 47 328 1.0 2.0 0.00 0.00 0.00 95 1017.6
20260906090640 47 4 0.0 2.0 0.00 0.00 0.00 95 1017.6
20260906085518 47 0.0 0.0 0.00 0.00 0.00 95 1017.7
20260906084518 48 2 0.0 2.0 0.00 0.00 0.00 95 1017.7
20260906083538 48 287 0.0 1.0 0.00 0.00 0.00 95 1017.7
20260906082518 48 0.0 0.0 0.00 0.00 0.00 95 1017.7
20260906081558 49 316 1.0 2.0 0.00 0.00 0.00 95 1017.7
20260906080519 49 342 2.0 3.0 0.00 0.00 0.00 95 1017.7
20260906075520 49 10 2.0 3.0 0.00 0.00 0.00 95 1017.8
20260906074517 49 335 1.0 2.0 0.00 0.00 0.00 95 1017.8
20260906073516 49 348 0.0 2.0 0.00 0.00 0.00 94 1017.7
20260906072519 50 352 1.0 2.0 0.00 0.00 0.00 94 1017.8
20260906071519 50 338 2.0 2.0 0.00 0.00 0.00 93 1017.7
20260906070558 50 349 2.0 3.0 0.00 0.00 0.00 91 1017.7
20260906065517 51 332 2.0 2.0 0.00 0.00 0.00 89 1017.6
20260906064520 51 356 2.0 3.0 0.00 0.00 0.00 87 1017.5
20260906063539 51 360 1.0 2.0 0.00 0.00 0.00 87 1017.6
20260906062519 52 337 2.0 2.0 0.00 0.00 0.00 87 1017.5
20260906061517 53 344 1.0 2.0 0.00 0.00 0.00 86 1017.4
20260906060518 53 242 1.0 3.0 0.00 0.00 0.00 84 1017.3
20260906055518 54 319 1.0 2.0 0.00 0.00 0.00 82 1017.4
20260906054519 53 285 0.0 1.0 0.00 0.00 0.00 81 1017.4
20260906053519 54 0.0 0.0 0.00 0.00 0.00 80 1017.3
20260906052520 54 304 0.0 1.0 0.00 0.00 0.00 81 1017.4
20260906051521 54 275 0.0 0.0 0.00 0.00 0.00 80 1017.4
20260906050520 55 0.0 0.0 0.00 0.00 0.00 79 1017.3
20260906045520 55 286 1.0 1.0 0.00 0.00 0.00 78 1017.3
20260906044557 55 257 1.0 2.0 0.00 0.00 0.00 79 1017.3
20260906043519 55 299 0.0 0.0 0.00 0.00 0.00 79 1017.3
20260906042519 55 311 0.0 1.0 0.00 0.00 0.00 78 1017.3
20260906041602 56 251 1.0 1.0 0.00 0.00 0.00 77 1017.3
20260906040517 56 261 0.0 1.0 0.00 0.00 0.00 75 1017.4
20260906035517 57 305 0.0 2.0 0.00 0.00 0.00 74 1017.4
20260906034518 58 318 1.0 2.0 0.00 0.00 0.00 72 1017.4
20260906033520 59 327 2.0 2.0 0.00 0.00 0.00 70 1017.4
20260906032523 59 299 1.0 2.0 0.00 0.00 0.00 69 1017.3
20260906031519 59 302 1.0 2.0 0.00 0.00 0.00 71 1017.3
20260906030518 59 321 2.0 2.0 0.00 0.00 0.00 71 1017.2
20260906025540 60 315 1.0 2.0 0.00 0.00 0.00 70 1017.2
20260906024518 60 260 0.0 1.0 0.00 0.00 0.00 67 1017.2
20260906023519 61 273 0.0 2.0 0.00 0.00 0.00 67 1017.3
20260906022520 61 224 0.0 2.0 0.00 0.00 0.00 68 1017.3
20260906021518 62 224 1.0 2.0 0.00 0.00 0.00 68 1017.3
20260906020519 62 220 1.0 2.0 0.00 0.00 0.00 66 1017.3
20260906015519 63 219 1.0 2.0 0.00 0.00 0.00 64 1017.2
20260906014518 65 243 0.0 2.0 0.00 0.00 0.00 62 1017.1
20260906013524 66 0.0 0.0 0.00 0.00 0.00 56 1017.0
20260906012519 65 0.0 0.0 0.00 0.00 0.00 57 1017.0
20260906011539 65 0.0 0.0 0.00 0.00 0.00 58 1017.0
20260906010541 66 162 0.0 1.0 0.00 0.00 0.00 57 1017.0
20260906005517 66 169 0.0 1.0 0.00 0.00 0.00 53 1016.9
20260906004539 67 172 1.0 2.0 0.00 0.00 0.00 53 1017.0
20260906003521 67 139 1.0 3.0 0.00 0.00 0.00 52 1017.0
20260906002520 68 175 0.0 2.0 0.00 0.00 0.00 53 1017.0
20260906001519 68 175 0.0 2.0 0.00 0.00 0.00 54 1016.9
20260906000518 68 211 1.0 3.0 0.00 0.00 0.00 53 1016.9
20260905235518 67 191 0.0 3.0 0.00 0.00 0.00 52 1017.0
20260905234518 68 170 0.0 2.0 0.00 0.00 0.00 52 1017.0
20260905233519 69 211 0.0 2.0 0.00 0.00 0.00 50 1017.0
20260905232519 68 176 0.0 2.0 0.00 0.00 0.00 53 1017.0
20260905231521 66 54 1.0 4.0 0.00 0.00 0.00 54 1017.0
20260905230600 67 91 1.0 4.0 0.00 0.00 0.00 53 1017.0
20260905225543 67 134 0.0 4.0 0.00 0.00 0.00 54 1017.0
20260905224518 66 29 2.0 4.0 0.00 0.00 0.00 54 1017.1